Regional Weather Roundup
Issued by NWS

Home | Current Version | Previous Version | Text Only | Print | Product List | Glossary On
Versions: 1 2 3 4 5 6 7 8 9 10 11 12 13 14 15 16 17 18 19 20 21 22 23 24 25 26 27 28 29 30 31 32 33 34 35 36 37 38 39 40 41 42 43 44 45 46 47 48 49 50
000
ASUS43 KDTX 191801
RWRMI
MICHIGAN HOURLY REGIONAL WEATHER ROUNDUP
NATIONAL WEATHER SERVICE DETROIT/PONTIAC MI
200 PM EDT FRI SEP 19 2014

NOTE: "FAIR" INDICATES FEW OR NO CLOUDS BELOW 12,000 FEET WITH NO
SIGNIFICANT WEATHER AND/OR OBSTRUCTION TO VISIBILITY.

MIZ047>049-052>055-059>063-066>070-074>076-081>083-191900-
SOUTHEAST LOWER MICHIGAN

CITY           SKY/WX    TMP DP  RH WIND       PRES   REMARKS
ADRIAN         SUNNY     64  47  53 CALM      30.19F
6HR MIN TEMP:  44; 6HR MAX TEMP:  67;

ALMA           PTSUNNY   65  51  60 S8        30.18F
ANN ARBOR      SUNNY     67  45  45 MISG      30.19F
BAD AXE        MOSUNNY   63  49  59 S12       30.19F
6HR MIN TEMP:  31; 6HR MAX TEMP:  63;

CARO           FAIR      64  43  46 SE8       30.18F
DETROIT CITY   MOSUNNY   62  51  67 SE9       30.21F
6HR MIN TEMP:  45; 6HR MAX TEMP:  64;

DETROIT        PTSUNNY   64  42  44 CALM      30.21F
6HR MIN TEMP:  45; 6HR MAX TEMP:  65;

FLINT          SUNNY     66  46  48 E6        30.19F
6HR MIN TEMP:  40; 6HR MAX TEMP:  66;

GROSSE ILE     SUNNY     63  46  55 S6        30.20F
HILLSDALE      SUNNY     67  47  47 S3        30.19S
HOWELL         SUNNY     64  47  54 SE8       30.19F
6HR MIN TEMP:  39; 6HR MAX TEMP:  64;


CITY           SKY/WX    TMP DP  RH WIND       PRES   REMARKS
JACKSON        MOSUNNY   67  49  52 SE3       30.19F
6HR MIN TEMP:  44; 6HR MAX TEMP:  67;

LAMBERTVILLE   SUNNY     64  48  55 SE3       30.20F
LANSING        MOSUNNY   66  50  56 MISG      30.19S
6HR MIN TEMP:  42; 6HR MAX TEMP:  66;

LAPEER         FAIR      64  45  50 S8        30.20F
MASON          MOSUNNY   65  50  58 CALM      30.19S
MONROE         SUNNY     64  52  63 SE7       30.19F
MT. CLEMENS    PTSUNNY   60  54  81 E10       30.20F
6HR MIN TEMP:  41; 6HR MAX TEMP:  60;

PONTIAC        MOSUNNY   63  44  50 VRB7      30.19F
6HR MIN TEMP:  40; 6HR MAX TEMP:  64;

PORT HOPE        N/A     61  47  59 SE9       30.18F
6HR MIN TEMP:  40; 6HR MAX TEMP:  62;

PORT HURON     SUNNY     64  46  52 SE9G16    30.20F
TRI CITIES     MOSUNNY   64  47  53 SW9       30.20F
6HR MIN TEMP:  41; 6HR MAX TEMP:  65;

TROY           SUNNY     65  44  46 SE3       30.21F
SAGINAW HB     MOSUNNY   63  46  55 S3        30.18F
$$
MIZ043>046-050>051-056>058-064>065-071>073-077>080-191900-
SOUTHWEST LOWER MICHIGAN

CITY           SKY/WX    TMP DP  RH WIND       PRES   REMARKS
BATTLE CREEK   PTSUNNY   68  50  52 S8        30.19F
6HR MIN TEMP:  48; 6HR MAX TEMP:  68;

BENTON HARBOR  SUNNY     69  53  56 SE9       30.15F
6HR MIN TEMP:  51; 6HR MAX TEMP:  69;

BIG RAPIDS     MOSUNNY   65  56  70 S10G17    30.14F
6HR MIN TEMP:  41; 6HR MAX TEMP:  65;

COLDWATER      MOSUNNY   68  50  53 SW7       30.18F
6HR MIN TEMP:  47; 6HR MAX TEMP:  69;

FREMONT        FAIR      67  52  59 S9        30.14S
HOLLAND        SUNNY     71  55  56 SE8       30.15F
6HR MIN TEMP:  49; 6HR MAX TEMP:  71;

GRAND RAPIDS   PTSUNNY   68  54  60 SE14G23   30.15F
6HR MIN TEMP:  49; 6HR MAX TEMP:  68;

IONIA          FAIR      67  52  58 S10G16    30.16F
KALAMAZOO      PTSUNNY   69  49  48 S9        30.17F
6HR MIN TEMP:  44; 6HR MAX TEMP:  69;

LUDINGTON      SUNNY     67  56  66 S9        30.11F
6HR MIN TEMP:  46; 6HR MAX TEMP:  67;

MARSHALL       MOSUNNY   66  49  55 S6        30.18S
MOUNT PLEASANT PTSUNNY   64  49  58 SE12G17   30.16F
6HR MIN TEMP:  35; 6HR MAX TEMP:  64;

MUSKEGON       PTSUNNY   70  53  54 S13       30.14S
6HR MIN TEMP:  49; 6HR MAX TEMP:  70;

SOUTH HAVEN    SUNNY     71  54  55 S10       30.15S
$$
MIZ016>042-191900-
NORTHERN LOWER MICHIGAN

CITY           SKY/WX    TMP DP  RH WIND       PRES   REMARKS
ALPENA         PTSUNNY   62  46  55 S14       30.16F
6HR MIN TEMP:  36; 6HR MAX TEMP:  62;

BEAVER ISLAND  PTSUNNY   65  54  67 S9G20     30.06F
6HR MIN TEMP:  53; 6HR MAX TEMP:  65;

BELLAIRE       SUNNY     67  50  54 S13       30.10S
6HR MIN TEMP:  47; 6HR MAX TEMP:  67;

CADILLAC       SUNNY     65  53  67 S15       30.13S
CHARLEVOIX     FAIR      67  53  59 S9G17     30.10F
6HR MIN TEMP:  48; 6HR MAX TEMP:  67;

FRANKFORT      SUNNY     68  52  55 SW13G18   30.09F
GAYLORD        MOSUNNY   62  48  60 S14       30.11F
6HR MIN TEMP:  44; 6HR MAX TEMP:  62;

GRAYLING       MOSUNNY   63  49  60 SE9       30.14F
6HR MIN TEMP:  44; 6HR MAX TEMP:  63;

HARBOR SPRINGS MOSUNNY   67  51  55 S10G17    30.08F
HOUGHTON LAKE  MOSUNNY   61  48  62 S13       30.15F
6HR MIN TEMP:  41; 6HR MAX TEMP:  61;

MANISTEE       SUNNY     66  52  59 S10G18    30.11F
OSCODA         PTSUNNY   61  46  57 S9        30.18F
PELLSTON       MOSUNNY   67  51  56 S10       30.09F
6HR MIN TEMP:  48; 6HR MAX TEMP:  67;

ROGERS CITY    PTSUNNY   62  52  69 S14G20    30.13F
TRAVERSE CITY  CLOUDY    69  50  50 S10G21    30.08F
6HR MIN TEMP:  47; 6HR MAX TEMP:  69;

$$
MIZ007>008-015-191900-
EASTERN UPPER MICHIGAN

CITY           SKY/WX    TMP DP  RH WIND       PRES   REMARKS
KINROSS        PTSUNNY   57  48  72 SE14G21   30.08F
6HR MIN TEMP:  48; 6HR MAX TEMP:  59;

MACKINAC ISLAN PTSUNNY   62  51  66 S7        30.08F
6HR MIN TEMP:  48; 6HR MAX TEMP:  63;

NEWBERRY       CLOUDY    57  52  84 S15       30.04F
S. S. MARIE    PTSUNNY   55  46  71 SE13G18   30.08F
6HR MIN TEMP:  48; 6HR MAX TEMP:  56;

$$
MIZ004>006-011>014-085-191900-
CENTRAL UPPER MICHIGAN

CITY           SKY/WX    TMP DP  RH WIND       PRES   REMARKS
MANISTIQUE     CLOUDY    58  55  88 S14G29    30.03F
ESCANABA       MOSUNNY   63  55  77 S14G22    29.99F
6HR MIN TEMP:  55; 6HR MAX TEMP:  63;

MENOMINEE      MOSUNNY   68  54  60 S16G29    29.98F
6HR MIN TEMP:  55; 6HR MAX TEMP:  68;

SAWYER-GWINN   PTSUNNY   63  52  67 S24G35    29.93F
$$
MIZ001>003-009>011-084-191900-
WESTERN UPPER MICHIGAN

CITY           SKY/WX    TMP DP  RH WIND       PRES   REMARKS
IRON MOUNTAIN  PTSUNNY   61  51  70 S17G24    29.94F
6HR MIN TEMP:  48; 6HR MAX TEMP:  62;

HOUGHTON       CLOUDY    64  50  60 S12G24    29.79F
6HR MIN TEMP:  50; 6HR MAX TEMP:  64;

COPPER HARBOR    N/A     60  51  72 SW10G18   29.78F
6HR MIN TEMP:  50; 6HR MAX TEMP:  63;

IRONWOOD       CLOUDY    63  52  67 S21G31    29.67F
6HR MIN TEMP:  54; 6HR MAX TEMP:  64;

$$

ABBREVIATIONS USED IN REMARKS
   TC - TEMPERATURE IN CELSIUS
  WCI - WIND CHILL INDEX
   HX - HEAT INDEX
  VSB - VISIBILITY



USA.gov is the U.S. government's official web portal to all federal, state and local government web resources and services.